Showing default

ORBCOMM FM 106, 40088

Orbit data source: Space-Track

ORBCOMM FM 106, 40088 is a payload satellite owned by Orbcomm (US) in LEO that was launched on Mon, 14 Jul 2014 UTC via an FALCON 9 launch vehicle from the Air Force Eastern Test Range (AFETR). Payload-class satellites include a variety of spacecraft equipped with specific instruments for various scientific and technological missions. These include communications satellites like Starlink; space stations such as the ISS; scientific satellites like the Hubble; Earth observation satellites from companies like Planet Labs, Umbra, and HawkEye 360; GPS; miniature CubeSats for education and research; and military/defense satellites.

Loading next visibility...
Identifier
40088, 2014-040C
Orbit
LEO
Country
Flag of USUS / ORB
Related business
Manufacturer
SNC Louisville
Mission
Non-operational Commercial Communications
Bus & Motor
SN-100A, Unknown motor
Mass
172 kg wet, 158 kg dry
Launch date (UTC)
2014-07-14 (11 years ago)
Launch vehicle
FALCON 9
Launch site
Air Force Eastern Test Range (AFETR)
Object type
Payload
Rocket body
Debris
Shape & HBR
Box + 1 Pan + 1 Ant, 6.5 m
Radar Cross Section
2.222 m², Medium (>0.1 m² and < 1m²)

Expand to show TLE details & history
Last TLE update: 20 hours ago

TLE from 20 hours ago
0 ORBCOMM FM 106
1 40088U 14040C   25260.01709029  .00000838  00000-0  17080-3 0  9990
2 40088  47.0596 118.2157 0016466 134.5307 225.6932 14.69646025596983
Epoch: 2025-09-17T00:24Z
TLE epoch observation values (Epoch: 2025-09-17T00:24:36.601Z)
Latitude
Longitude
115.86411°
Altitude
670.528 km
Speed
7.519 km/s
True Right ascension
07h 52m 51s
True Declination
0° 00' 00"
Sunlit
Object was in daylight at epoch
Visualization orbit readout
Latitude
Unknown
Longitude
Unknown
Altitude
Unknown
Speed
Unknown
Apparent Right ascension
Unknown
Apparent Declination
Unknown
Sunlit
N/A
Visualization observer readout
Local Sidereal Time
13:34:15
Azimuth
Unknown
Elevation
Unknown
Doppler factor
Unknown
Orbital elements
Apogee altitude
675.024 km
Perigee altitude
651.835 km
Semi-major axis
7,041.567 km
Eccentricity
0.00165
Inclination
47.0596°
RAAN
118.2157°
Arg. of periapsis
134.5307°
True anomaly
225.55837°
Mean anomaly
225.6932°
Eccentric anomaly
225.62576°
Mean motion
3.67315 °/min
Orbital period
98.01 mins
BSTAR
0.0001708
Loading maneuver chart data...
Computing Atmospheric mass density...
Loading historical data...
Loading historical data...
Loading historical data...
Loading historical data...
Loading historical data...
Loading historical data...
Loading historical data...

Documentation

Showing up to 5 results
|